CZ-4B DEB, 43660

Orbit data source: Space-Track

CZ-4B DEB, 43660 is space debris in SSO originally from a launch on Wed, 24 Oct 2018 UTC launched from the Taiyaun Space Center, China (TSC). Debris objects in space refer to the collection of defunct objects orbiting the Earth. Examples of debris include non-operational satellites, rocket bodies, and fragments generated from explosions, collisions, or faulty payload assembly.

Loading next visibility...
Identifier
43660, 2018-081D
Orbit
SSO
Country
Flag of CNCN / PRC
Related business
Manufacturer
SAST
Mission
Spacecraft
Bus & Motor
Unknown
Mass
Unknown
Launch date (UTC)
2018-10-24 (7 years ago)
Launch vehicle
Unknown
Launch site
Taiyaun Space Center, China (TSC)
Object type
Payload
Rocket body
Debris
Shape & HBR
Unknown shape, 0.1 m
Radar Cross Section
Small (<0.1 m²)

Expand to show TLE details & history
Last TLE update: 13 hours ago

TLE from 13 hours ago
0 CZ-4B DEB
1 43660U 18081D   26037.31617924  .00000136  00000-0  14388-3 0  9995
2 43660  99.1240  68.2467 0013011 357.1200   2.9882 13.90568380369722
Epoch: 2026-02-06T07:35Z
TLE epoch observation values (Epoch: 2026-02-06T07:35:17.886Z)
Latitude
-0°
Longitude
177.96637°
Altitude
920.007 km
Speed
7.397 km/s
True Right ascension
04h 32m 59s
True Declination
0° 00' 00"
Sunlit
Object was in daylight at epoch
Visualization orbit readout
Latitude
Unknown
Longitude
Unknown
Altitude
Unknown
Speed
Unknown
Apparent Right ascension
Unknown
Apparent Declination
Unknown
Sunlit
N/A
Visualization observer readout
Local Sidereal Time
22:25:35
Azimuth
Unknown
Elevation
Unknown
Doppler factor
Unknown
Orbital elements
Apogee altitude
933.358 km
Perigee altitude
914.357 km
Semi-major axis
7,301.995 km
Eccentricity
0.0013
Inclination
99.124°
RAAN
68.2467°
Arg. of periapsis
357.12°
True anomaly
2.99599°
Mean anomaly
2.9882°
Eccentric anomaly
2.99209°
Mean motion
3.47841 °/min
Orbital period
103.5 mins
BSTAR
0.00014388
Loading maneuver chart data...
Computing Atmospheric mass density...
Loading historical data...
Loading historical data...
Loading historical data...
Loading historical data...
Loading historical data...
Loading historical data...
Loading historical data...

Documentation

Showing up to 5 results
|